Weather History for KNYL - March, 2014

Change the Weather History Date:

Monday, March 24, 2014

  Actual Average Record
Temperature  
Mean Temperature 76 °F 68 °F  
Max Temperature 90 °F 82 °F 96 °F (2008)
Min Temperature 61 °F 55 °F 34 °F (1898)
Degree Days  
Heating Degree Days 0 1  
Month to date heating degree days 4 44  
Since 1 July heating degree days 365 667  
Cooling Degree Days 11 5  
Month to date cooling degree days 145 82  
Year to date cooling degree days 259 118  
Growing Degree Days 24 (Base 50)    
Moisture  
Dew Point 38 °F    
Average Humidity 31    
Maximum Humidity 51    
Minimum Humidity 10    
Precipitation  
Precipitation 0.00 in 0.01 in 0.21 in (1902)
Month to date precipitation 0.07 0.27  
Year to date precipitation 0.07 1.03  
Sea Level Pressure  
Sea Level Pressure 29.94 in    
Wind  
Wind Speed 3 mph (WSW)    
Max Wind Speed 9 mph    
Max Gust Speed 16 mph    
Visibility 10 miles    
Events      
T = Trace of Precipitation, MM = Missing Value Source: NWS Daily Summary

Daily Weather History Graph

Daily Weather History Graph

Search for Another Location

Airport or City:

Trip Planner

Search our weather history database for the weather conditions in past years. The results will help you decide how hot, cold, wet, or windy it might be!

Date:

Astronomy

Mar. 24, 2014 Rise Set
Actual Time 6:36 AM MST 6:52 PM MST
Civil Twilight 6:12 AM MST 7:17 PM MST
Nautical Twilight 5:43 AM MST 7:46 PM MST
Astronomical Twilight 5:14 AM MST 8:15 PM MST
Moon 1:52 AM MST (3/24) 12:40 PM MST (3/24)
Length of Visible Light 13h 05m
Length of Day
12h 16m
Last Quarter, 42% of the Moon is Illuminated
Mar 24
Last Quarter
Mar 30
New
Apr 7
First Quarter
Apr 15
Full
Apr 22
Last Quarter

Hourly Weather History & Observations

Time (MST) Temp. Dew Point Humidity Pressure Visibility Wind Dir Wind Speed Gust Speed Precip Events Conditions
12:57 AM 69.1 °F 42.1 °F 38% 29.96 in 10.0 mi SSE 4.6 mph - N/A   Clear
1:57 AM 64.9 °F 42.1 °F 43% 29.96 in 10.0 mi Calm Calm - N/A   Clear
2:57 AM 66.0 °F 43.0 °F 43% 29.95 in 10.0 mi Calm Calm - N/A   Clear
3:57 AM 63.0 °F 41.0 °F 45% 29.94 in 10.0 mi Calm Calm - N/A   Clear
4:57 AM 63.0 °F 43.0 °F 48% 29.95 in 10.0 mi ENE 3.5 mph - N/A   Clear
5:57 AM 62.1 °F 42.1 °F 48% 29.96 in 10.0 mi Calm Calm - N/A   Clear
6:57 AM 61.0 °F 43.0 °F 52% 29.98 in 10.0 mi Calm Calm - N/A   Partly Cloudy
7:57 AM 63.0 °F 43.0 °F 48% 30.00 in 10.0 mi SSW 3.5 mph - N/A   Scattered Clouds
8:57 AM 69.1 °F 39.0 °F 33% 30.02 in 10.0 mi Calm Calm - N/A   Mostly Cloudy
9:57 AM 73.0 °F 41.0 °F 31% 30.02 in 10.0 mi SW 3.5 mph - N/A   Mostly Cloudy
10:57 AM 73.9 °F 39.9 °F 29% 30.02 in 10.0 mi WSW 5.8 mph - N/A   Mostly Cloudy
11:57 AM 80.1 °F 37.9 °F 22% 30.01 in 10.0 mi Calm Calm - N/A   Mostly Cloudy
12:57 PM 86.0 °F 37.9 °F 18% 29.98 in 10.0 mi Calm Calm - N/A   Mostly Cloudy
1:57 PM 87.1 °F 32.0 °F 14% 29.94 in 10.0 mi WNW 3.5 mph - N/A   Mostly Cloudy
2:57 PM 88.0 °F 30.9 °F 13% 29.91 in 10.0 mi NNW 4.6 mph - N/A   Scattered Clouds
3:57 PM 88.0 °F 28.9 °F 12% 29.89 in 10.0 mi West 5.8 mph - N/A   Scattered Clouds
4:57 PM 88.0 °F 28.0 °F 12% 29.88 in 10.0 mi WSW 3.5 mph - N/A   Scattered Clouds
5:57 PM 87.1 °F 25.0 °F 10% 29.88 in 10.0 mi WSW 5.8 mph - N/A   Scattered Clouds
6:57 PM 84.0 °F 28.9 °F 14% 29.87 in 10.0 mi WSW 5.8 mph - N/A   Scattered Clouds
7:57 PM 79.0 °F 42.1 °F 27% 29.88 in 10.0 mi West 5.8 mph - N/A   Scattered Clouds
8:57 PM 75.0 °F 42.1 °F 31% 29.89 in 10.0 mi West 6.9 mph - N/A   Scattered Clouds
9:57 PM 73.9 °F 41.0 °F 30% 29.89 in 10.0 mi West 5.8 mph - N/A   Scattered Clouds
10:57 PM 73.9 °F 39.9 °F 29% 29.89 in 10.0 mi West 3.5 mph - N/A   Clear
11:57 PM 69.1 °F 43.0 °F 39% 29.88 in 10.0 mi SSE 4.6 mph - N/A   Clear